Capital City Airport Lansing US
ICAO: KLAN
IATA: LAN
Category: Medium
Scheduled Services: Yes

Elevation: 861 ft
TransAlt. 18000 ft.

Airport Communications:
LANSING APP/DEP:118.65
ATIS:119.75
CLNC DEL:123.675
GND:121.9
LANSING RDO:122.2
LANSING TWR:119.9
UNICOM:122.95

KLAN Zoom In..

If you have problems with the map follow the link
https://www.worldairports.se/pages/airport.php?
ICAO=KLAN

Runways:

(A) RW 06 length 5002 ft width 120 ft
---- / hdg 58

(B) RW 10L length 3601 ft width 75 ft
---- / hdg 96

(C) RW 10R length 8506 ft width 150 ft
ILS 111.70 / hdg 96

(D) RW 24 length 5002 ft width 120 ft
---- / hdg 238

(E) RW 28L length 8506 ft width 150 ft
ILS 110.10 / hdg 276

(F) RW 28R length 3601 ft width 75 ft
---- / hdg 276

Location; KLAN
Day. 16 / Time. 03.11 Zulu
* Altimeter: 29.87
* Temperature: 00° c. 32°f.
* Wind from: 250° Speed 07 kn.
Dewpoint: -01° c.
Visibility: 1 m.
Clouds: Broken 600 ft.
Clouds: Overcast 1000 ft.
Conditions: Light Snow.Conditions: Mist.

KLAN 160311Z 25007KT 1 1/2SM -SN BR BKN006 OVC010 00/M01 A2987 RMK AO2 P0001 T00001006


Wind From 250°
Speed 07 kn.

 
 
jpsmedia.com for Web Design worldairports.se 2018   terms of use